{"data":{"norad_id":63507,"intl_designator":"2025-071Q","name":"STARLINK-33843","alt_names":[],"object_type":"PAYLOAD","status":"ACTIVE","operator":null,"country":"US","launch_date":"2025-04-07","launch_site_code":"AFWTR","launch_vehicle":null,"mission":null,"orbit_class":"UNKNOWN","rcs_meters":null,"size_class":null,"mass_kg":null,"dimensions":null,"purposes":["comms"],"wikipedia_slug":null,"has_3d_model":false,"image_url":null,"decayed_at":null,"tle_current":{"epoch":"2026-09-20T11:06:56.738880Z","epoch_age_seconds":158743,"freshness":"FRESH","line1":"1 63507U 25071Q   26263.46315670  .00014612  00000+0  48147-3 0  9997","line2":"2 63507  53.1630 314.2594 0002049  47.6679 312.4496 15.31715781 82584","mean_motion":15.31715781,"eccentricity":0.0002049,"inclination_deg":53.163,"raan_deg":314.2594,"arg_perigee_deg":47.6679,"mean_anomaly_deg":312.4496,"bstar":0.00048147,"rev_number":8258,"period_min":94.012219359644,"perigee_km":469.28962803229,"apogee_km":472.09627854714,"semimajor_km":6848.8299532897,"source":"CELESTRAK","updated_at":"2026-09-21T09:00:35.016100Z"}}}